This demonstration page uses our WeatherBlox Daily Observations layout. Learn more.

Left ArrowRight Arrow

Hourly Observations for April 30, 2022

Temp ( °F °C ) Dew Point ( °F °C ) Humidity (%) Winds ( mph kmh ) Pressure ( in mb ) Visibility ( mi km ) Precip ( " mm )
2:53 am 02:53 Clear 59 15 45 7.2 60 60 Calm 29.98 1015 10 16 0.00 0.00
4:53 am 04:53 Clear 60 15.6 45 7.2 58 58 Calm 29.97 1015 10 16 0.00 0.00
5:53 am 05:53 Partly Cloudy 58 14.4 47 8.3 67 67 NW 3 6 29.96 1015 10 16 0.00 0.00
6:53 am 06:53 Mostly Sunny 58 14.4 47 8.3 67 67 Calm 29.97 1015 10 16 0.00 0.00
7:53 am 07:53 Sunny 61 16.1 50 10 67 67 NNE 3 6 29.97 1015 10 16 0.00 0.00
8:53 am 08:53 Sunny 65 18.3 50 10 59 59 WNW 3 6 29.97 1015 10 16 0.00 0.00
9:53 am 09:53 Sunny 71 21.7 46 7.8 41 41 NW 7 11 29.96 1014 10 16 0.00 0.00
10:53 am 10:53 Sunny 73 22.8 45 7.2 37 37 S 5 7 29.94 1014 10 16 0.00 0.00
11:53 am 11:53 Mostly Cloudy 75 23.9 44 6.7 33 33 WSW 12 19 29.92 1013 10 16 0.00 0.00
12:53 pm 12:53 Sunny 77 25 41 5 28 28 SSW 10 17 29.89 1012 10 16 0.00 0.00
1:53 pm 13:53 Partly Cloudy 77 25 46 7.8 33 33 S 15 24 29.86 1011 10 16 0.00 0.00
2:53 pm 14:53 Mostly Sunny 78 25.6 40 4.4 26 26 SSW 9 15 29.86 1011 10 16 0.00 0.00
3:53 pm 15:53 Sunny 79 26.1 38 3.3 23 23 WSW 13 20 29.83 1010 10 16 0.00 0.00
4:28 pm 16:28 Sunny 80 26.7 37 2.8 21 21 SW 16 26 29.80 1009 10 16 0.00 0.00
4:53 pm 16:53 Sunny 80 26.7 38 3.3 22 22 W 10 17 29.80 1009 10 16 0.00 0.00
5:53 pm 17:53 Sunny 78 25.6 37 2.8 23 23 W 10 17 29.79 1009 10 16 0.00 0.00
6:53 pm 18:53 Sunny 76 24.4 35 1.7 23 23 W 9 15 29.79 1009 10 16 0.00 0.00
7:53 pm 19:53 Sunny 71 21.7 35 1.7 27 27 NW 8 13 29.80 1009 10 16 0.00 0.00
8:53 pm 20:53 Clear 67 19.4 34 1.1 30 30 W 10 17 29.82 1010 10 16 0.00 0.00
9:53 pm 21:53 Clear 64 17.8 35 1.7 34 34 WNW 8 13 29.84 1010 10 16 0.00 0.00
10:53 pm 22:53 Clear 62 16.7 34 1.1 35 35 WNW 10 17 29.85 1011 10 16 0.00 0.00

Powered by AerisWeather